星链-37279(STARLINK-37279)

导读

STARLINK-37279(NORAD编号68768)是SpaceX星链星座中的一颗低轨互联网通信卫星,隶属于星链全球卫星互联网系统。星链系统旨在通过大规模低轨卫星组网,为全球偏远地区、航空航海场景及应急场景提供宽带互联网接入服务,该卫星采用近地轨道部署,具备低延迟通信特性,配合星链的相控阵天线与星间激光链路技术,可支持动态波束成形,减少对地面站的依赖,共同支撑全球连续互联网覆盖,服务星链星座的整体通信组网能力。

基本信息
目录编号:
68768
目录名称:
STARLINK-37279
国际标识:
2026-086C
轨道中心:
EARTH
卫星名称:
星链-37279
卫星全名:
星链-37279(STARLINK-37279)
卫星状态:
在轨 (已飞行147 天)
发射日期:
2026-04-19 UTC
国别 :
美国 (US)
星等 :
--
该卫星已列入 空间交会检测服务 Space Conjunction Data Service (SCDS) ,当前飞行风险评估等级: 无高风险
轨道信息
数据来源 国际轨道数据 AOE轨道数据
星历时间 2026-09-13T09:46:41+0800
8小时前
查看轨道信息
2026-09-10T22:00:00+0800
2天前
查看轨道信息
半长轴 6843.691km 6843.694km
偏心率 0.0001004 0.0001775
轨道倾角 97.284° 97.288°
近地点辐角 108.592° 43.667°
升交点赤经 291.558° 289.101°
平近点角 251.543° 255.462°
近地点 464.866km 464.342km
远地点 466.242km 466.772km
周期 93.906分钟 93.906分钟
每日圈数 15.334415 15.334404
详细信息
固有亮度:
5
最大亮度:
2.5
卫星平台:
Starlink V1.0
覆盖范围:
全球
运营商:
太空探索技术公司
运营商所在国:
美国
制造商(研发单位):
太空探索技术公司
制造商所在国:
美国
使用方式:
暂无
卫星简介
Starlink 计划是 SpaceX 推出的全球卫星互联网项目,通过发射低轨道卫星,为全球尤其是偏远地区提供高速、低延迟的互联网服务。自 2019 年起,Starlink 已部署数千颗卫星,旨在缩小全球数字鸿沟,推动互联网普及。该项目还为军事、航空等行业提供通信支持,带来广泛经济效益。
2D轨道图
3D轨道图
轨道高度分析图
轨道倾角分析图
轨道综合分析图
查看轨道综合分析图
交会数据列表
事件ID 空间交会对象 最接近时刻(TCA) 交会距离 交会风险概率(CRP) 交会风险指数(CRI) 操作
CDM_260906-164006-048506-876822
2026-09-06T
16:40:28+0000
0.992 km
远距离
1.447283E-5 中风险 0.58
CDM_260914-133704-944006-876821
2026-09-14T
13:37:09+0000
1.198 km
极远距离
1.405195E-5 中风险 0.58
CDM_260913-190504-787006-876821
2026-09-13T
19:05:38+0000
2.533 km
极远距离
1.707579E-6 低风险 0.4
CDM_260913-155305-017906-876821
2026-09-13T
15:53:00+0000
2.696 km
极远距离
1.546339E-6 低风险 0.39
CDM_260915-052004-781006-876821
2026-09-15T
05:20:04+0000
2.905 km
极远距离
1.380482E-6 低风险 0.38
CDM_260914-002705-211306-876821
2026-09-14T
00:27:00+0000
2.333 km
极远距离
1.150174E-6 低风险 0.36
CDM_260914-212606-151606-876821
2026-09-14T
21:26:42+0000
2.911 km
极远距离
9.809028E-7 极低风险 0.35
与全量物体交会距离演化趋势
与全量物体交会风险概率演化趋势